Voltar ao catálogo

KUIPER-00593

AtivoComunicaçõesLEO
NORAD 69278·PAYLOAD·🇺🇸 United States

Lançado May 29, 2026 de Vandenberg Space Force Base

Loading…

Próximas Passagens (próximas 24 horas)

TLE

AtualizadoSource: CelesTrak SupGP

Época: Sep 14, 2026, 19:37 UTC

1 69278C 26118M   26257.81781250  .00004395  00000+0  57530-3 0  2574
2 69278  51.8997 346.8284 0001755 149.1590 197.8135 14.79931623    15

Acompanhe KUIPER-00593 em tempo real com AllMySat

Download on the App Store